星链-11587 (STARLINK-11587)

导读 | 星芒AI

STARLINK-11587 是 SpaceX 星链计划中的一颗低轨通信卫星,属于第 5 批星链卫星(Batch 5/Gen2)。该卫星于 2021 年 11 月 19 日由猎鹰 9 号火箭从肯尼迪航天中心发射升空,作为星链第二代卫星群的一部分,旨在提供更高速、低延迟的全球互联网服务。它运行在约 550 公里的轨道高度,具备先进的通信技术和激光链路,提升网络稳定性和覆盖能力。

基本信息
目录编号:
63310
目录名称:
STARLINK-11587
国际标识:
2025-057D
轨道中心:
EARTH
卫星名称:
星链-11587
卫星全名:
星链-11587 (STARLINK-11587)
卫星状态:
在轨 (已飞行278 天)
发射日期:
2025-03-18 UTC
国别 :
美国 (US)
星等 :
--
轨道信息
数据来源 国际轨道数据
星历时间: 2025-12-21T16:30:29+0800
14小时前
查看轨道信息
半长轴: 6734.314km
偏心率: 0.0001697
轨道倾角: 43.000°
近地点辐角 247.801°
升交点赤经 17.058°
平近点角 112.268°
近地点: 355.034km
远地点: 357.32km
周期: 91.664分钟
每日圈数: 15.709516
详细信息
固有亮度:
5
最大亮度:
2.5
卫星平台:
Starlink V1.0
覆盖范围:
全球
运营商:
太空探索技术公司
运营商所在国:
美国
制造商(研发单位):
太空探索技术公司
制造商所在国:
美国
使用方式:
暂无
卫星简介
Starlink 计划是 SpaceX 推出的全球卫星互联网项目,通过发射低轨道卫星,为全球尤其是偏远地区提供高速、低延迟的互联网服务。自 2019 年起,Starlink 已部署数千颗卫星,旨在缩小全球数字鸿沟,推动互联网普及。该项目还为军事、航空等行业提供通信支持,带来广泛经济效益。
2D轨道图
3D轨道图
轨道高度分析图
轨道倾角分析图
轨道综合分析图
查看轨道综合分析图